Content
SEND FEEDBACK

Daily
Averages
Monthly
Summary
United States of America

COWETA, OKLAHOMA


Home > North America > United States > Oklahoma
Elevation: 720 feet     Latitude: 36 00N     Longitude: 095 43W

WEATHER
 
SELECT A DAY
Number of Records: 192,795;   Date Range: 1/1/95 - 8/28/14
 
SHARE

PRINT THIS DATA

[ ← Previous Day ]
WEATHER ALMANAC - FEBRUARY 13, 2013
[ Next Day → ]
[ °C ]   °F
Weather ElementAverageHighLow
Temperature40.5 °F54 °F (2:53 pm)33.1 °F (1:53 am)
Dewpoint32.5 °F35.6 °F (11:03 am)25 °F (11:53 pm)
Humidity77.5 %100 % (12:39 am)38 % (2:53 pm)
Barometer30.01 in30.07 in (8:53 am)29.94 in (4:53 pm)
Wind Speed7.6 mph13.8 mph (4:53 pm)
Weather ElementAverage
Visibility7.7 mi
Wind DirectionWSW (253.3 °)

Weather ElementTotal
Precipitation0.03 in
Heating Degree Days21.5 (Base 65)
Averaged from 33 records on February 13, 2013
WEATHER CONDITIONS BREAKOUT
WIND DIRECTION BREAKOUT
WEATHER BY HOUR - FEBRUARY 13, 2013
[ °C ]   °F
Local TimeTemperatureDewpointHumidityBarometerVisibilityWind DirectionWind SpeedGust SpeedPrecipitationEventsConditions
12:39 AM33.8 °F33.8 °F100 %30.03 in5.0 miNW (320°)4.6 mph0.01 inRainLight Rain
12:51 AM33.8 °F33.8 °F100 %30.02 in6.0 miNNW (330°)3.5 mph0.01 inRainLight Rain
12:53 AM34.0 °F34.0 °F100 %30.03 in6.0 miNW (320°)4.6 mph0.01 inRainLight Rain
1:18 AM33.8 °F33.8 °F100 %30.02 in6.0 miCalm0.00 inScattered Clouds
1:53 AM33.1 °F33.1 °F100 %30.02 in7.0 miNW (310°)4.6 mph0.00 inMostly Cloudy
2:08 AM33.8 °F33.8 °F100 %30.02 in6.0 miNW (310°)4.6 mphOvercast
2:19 AM33.8 °F33.8 °F100 %30.02 in7.0 miWNW (300°)6.9 mphOvercast
2:53 AM35.1 °F35.1 °F100 %30.03 in7.0 miWNW (290°)4.6 mphOvercast
3:53 AM35.1 °F35.1 °F100 %30.03 in7.0 miWest (280°)4.6 mphOvercast
4:53 AM36.0 °F35.1 °F97 %30.03 in7.0 miWest (260°)5.8 mphOvercast
5:53 AM36.0 °F34.0 °F93 %30.03 in6.0 miSW (230°)5.8 mphMostly Cloudy
5:57 AM35.6 °F33.8 °F93 %30.01 in6.0 miSW (230°)5.8 mphMostly Cloudy
6:01 AM35.6 °F33.8 °F93 %30.01 in6.0 miWSW (240°)9.2 mphOvercast
6:53 AM35.1 °F34.0 °F96 %30.05 in5.0 miWSW (250°)9.2 mphOvercast
7:53 AM34.0 °F33.1 °F96 %30.05 in3.0 miSW (220°)6.9 mphOvercast
8:53 AM36.0 °F35.1 °F97 %30.07 in5.0 miWest (260°)8.1 mphOvercast
9:53 AM37.0 °F34.0 °F89 %30.06 in5.0 miWest (260°)11.5 mphOvercast
10:53 AM39.0 °F34.0 °F82 %30.06 in7.0 miWSW (240°)10.4 mphMostly Cloudy
11:03 AM41.0 °F35.6 °F81 %30.05 in7.0 miWest (260°)9.2 mphMostly Cloudy
11:19 AM41.0 °F35.6 °F81 %30.05 in9.0 miWSW (250°)9.2 mphScattered Clouds
11:53 AM44.1 °F35.1 °F71 %30.05 in10.0 miWSW (240°)9.2 mphPartly Cloudy
12:53 PM45.0 °F35.1 °F68 %30.01 in10.0 miWSW (240°)9.2 mphClear
1:53 PM50.9 °F35.4 °F55 %29.99 in10.0 miWSW (250°)9.2 mphClear
2:53 PM54.0 °F28.9 °F38 %29.96 in10.0 miWSW (250°)10.4 mph
3:53 PM54.0 °F28.9 °F38 %29.95 in10.0 miWSW (240°)10.4 mphClear
4:53 PM54.0 °F28.9 °F38 %29.94 in10.0 miWSW (240°)13.8 mphClear
5:53 PM50.0 °F30.0 °F46 %29.94 in10.0 miWest (260°)8.1 mphClear
6:53 PM50.0 °F28.0 °F43 %29.95 in10.0 miWSW (250°)9.2 mphClear
7:53 PM48.9 °F28.9 °F46 %29.95 in10.0 miWSW (250°)8.1 mphClear
8:53 PM41.0 °F28.9 °F62 %29.96 in10.0 miWest (260°)6.9 mphClear
9:53 PM42.1 °F28.9 °F60 %29.97 in10.0 miWSW (250°)6.9 mphClear
10:53 PM46.0 °F27.0 °F47 %29.96 in10.0 miSW (230°)11.5 mphClear
11:53 PM44.1 °F25.0 °F47 %29.97 in10.0 miWSW (240°)8.1 mphClear
Hourly data recorded from KTUL, located miles away from Coweta, Oklahoma







STORIES FROM OUR PARTNERS